Date String (YYYY-MM-DD hh:mm:ss) UTC,Instrument flags,absolute air pressure of the measurement (hPa),sample flow rate (lpm),inlet stack bypass flow (lpm),air temperature of the measurement (°C),ambient temperature measured by the external sensor (°C),aerosol sample conditioner tube jacket temperature (°C),OPC LED temperature (°C),internal box temperature (°C),relative humidity of the measurement (%),span deviation,mass concentration of particles derived from Lorenz-Mie calculation of OPC scattering (μg/m³),mass concentration of particles derived from Lorenz-Mie calculation of OPC scattering (μg/m³),mass concentration of particles derived from Lorenz-Mie calculation of OPC scattering (μg/m³)
DateTimeUTC,F1_M11,P_M11,Q1_M11,Q2_M11,T1_M11,T2_M11,T3_M11,T4_M11,T5_M11,U1_M11,ZSPAN_M11,X2_M11,X0_M11,X1_M11
2023-09-25 05:00:00,SystemResetWarning,0835.5,5.00,000.00,028.5,027.1,000.0,036.8,030.1,12.0,0000.0,0003.98,0012.18,0003.27
2023-09-25 05:01:00,SystemResetWarning,0835.5,5.01,000.00,028.5,027.1,000.0,036.8,030.1,11.9,0000.0,0003.97,0012.86,0003.27
2023-09-25 05:02:00,SystemResetWarning,0835.5,5.00,000.00,028.5,027.2,000.0,036.8,030.1,11.9,0000.0,0003.94,0013.34,0003.27
2023-09-25 05:03:00,SystemResetWarning,0835.5,5.01,000.00,028.5,027.2,000.0,036.8,030.1,11.9,0000.0,0003.95,0012.17,0003.27
2023-09-25 05:04:00,SystemResetWarning,0835.5,5.01,000.00,028.5,027.2,000.0,036.8,030.1,11.9,0000.0,0003.97,0013.01,0003.28
2023-09-25 05:05:00,SystemResetWarning,0835.5,5.00,000.00,028.5,027.2,000.0,036.8,030.1,11.9,0000.0,0003.99,0013.69,0003.29
2023-09-25 05:06:00,SystemResetWarning,0835.5,4.98,000.00,028.5,027.2,000.0,036.8,030.2,11.9,0000.0,0003.98,0013.57,0003.30
2023-09-25 05:07:00,SystemResetWarning,0835.5,5.00,000.00,028.6,027.2,000.0,036.8,030.2,11.9,0000.0,0003.94,0012.62,0003.31
2023-09-25 05:08:00,SystemResetWarning,0835.5,5.01,000.00,028.6,027.2,000.0,036.8,030.2,11.8,0000.0,0003.93,0012.81,0003.31
2023-09-25 05:09:00,SystemResetWarning,0835.6,5.00,000.00,028.6,027.2,000.0,036.9,030.2,11.8,0000.0,0003.99,0013.65,0003.32
2023-09-25 05:10:00,SystemResetWarning,0835.5,5.00,000.00,028.6,027.3,000.0,036.9,030.2,11.8,0000.0,0003.99,0013.38,0003.32
2023-09-25 05:11:00,SystemResetWarning,0835.5,5.00,000.00,028.6,027.3,000.0,036.9,030.2,11.8,0000.0,0003.99,0014.05,0003.33
2023-09-25 05:12:00,SystemResetWarning,0835.5,5.00,000.00,028.6,027.3,000.0,036.9,030.2,11.8,0000.0,0003.98,0013.74,0003.33
2023-09-25 05:13:00,SystemResetWarning,0835.6,5.00,000.00,028.6,027.3,000.0,036.9,030.2,11.8,0000.0,0003.97,0012.66,0003.33
2023-09-25 05:14:00,SystemResetWarning,0835.7,5.00,000.00,028.6,027.3,000.0,036.9,030.2,11.7,0000.0,0003.94,0013.19,0003.34
2023-09-25 05:15:00,SystemResetWarning,0835.6,5.00,000.00,028.7,027.3,000.0,036.9,030.2,11.7,0000.0,0003.92,0012.63,0003.33
2023-09-25 05:16:00,SystemResetWarning,0835.6,4.99,000.00,028.7,027.3,000.0,036.9,030.2,11.7,0000.0,0003.88,0011.95,0003.33
2023-09-25 05:17:00,SystemResetWarning,0835.6,4.99,000.00,028.7,027.3,000.0,036.9,030.3,11.7,0000.0,0003.92,0012.15,0003.32
2023-09-25 05:18:00,SystemResetWarning,0835.6,4.99,000.00,028.7,027.3,000.0,037.0,030.3,11.7,0000.0,0003.94,0012.12,0003.32
2023-09-25 05:19:00,SystemResetWarning,0835.6,5.00,000.00,028.7,027.3,000.0,037.0,030.3,11.7,0000.0,0003.93,0011.33,0003.32
2023-09-25 05:20:00,SystemResetWarning,0835.5,5.00,000.00,028.7,027.4,000.0,037.0,030.3,11.7,0000.0,0003.88,0010.01,0003.33
2023-09-25 05:21:00,SystemResetWarning,0835.6,5.00,000.00,028.7,027.4,000.0,037.0,030.3,11.7,0000.6,0003.87,0009.85,0003.34
2023-09-25 05:22:00,SystemResetWarning,0835.6,4.99,000.00,028.7,027.4,000.0,037.0,030.3,11.6,0000.0,0003.87,0008.96,0003.34
2023-09-25 05:23:00,SystemResetWarning,0835.6,5.00,000.00,028.7,027.4,000.0,037.0,030.3,11.7,0000.0,0003.88,0008.89,0003.33
2023-09-25 05:24:00,SystemResetWarning,0835.6,4.99,000.00,028.7,027.4,000.0,037.0,030.3,11.7,0000.0,0003.91,0008.91,0003.34
2023-09-25 05:25:00,SystemResetWarning,0835.6,4.99,000.00,028.7,027.4,000.0,037.0,030.3,11.6,0000.0,0003.95,0008.30,0003.33
2023-09-25 05:26:00,SystemResetWarning,0835.6,5.01,000.00,028.8,027.4,000.0,037.0,030.3,11.7,0000.0,0003.98,0008.25,0003.33
2023-09-25 05:27:00,SystemResetWarning,0835.6,5.01,000.00,028.8,027.4,000.0,037.1,030.4,11.7,0000.0,0004.06,0008.34,0003.33
2023-09-25 05:28:00,SystemResetWarning,0835.6,5.01,000.00,028.8,027.4,000.0,037.1,030.4,11.7,0000.0,0004.10,0008.24,0003.33
2023-09-25 05:29:00,SystemResetWarning,0835.6,5.00,000.00,028.8,027.4,000.0,037.1,030.4,11.7,0000.0,0004.08,0008.72,0003.33
2023-09-25 05:30:00,SystemResetWarning,0835.6,4.99,000.00,028.8,027.4,000.0,037.1,030.4,11.6,0000.0,0004.12,0009.10,0003.32
2023-09-25 05:31:00,SystemResetWarning,0835.6,5.00,000.00,028.8,027.5,000.0,037.1,030.4,11.6,0000.0,0004.10,0009.11,0003.31
2023-09-25 05:32:00,SystemResetWarning,0835.6,5.00,000.00,028.8,027.5,000.0,037.1,030.4,11.6,0000.0,0004.09,0009.07,0003.31
2023-09-25 05:33:00,SystemResetWarning,0835.6,5.00,000.00,028.8,027.5,000.0,037.1,030.4,11.6,0000.0,0004.08,0009.10,0003.31
2023-09-25 05:34:00,SystemResetWarning,0835.6,5.00,000.00,028.8,027.5,000.0,037.1,030.4,11.7,0000.0,0004.07,0009.18,0003.31
2023-09-25 05:35:00,SystemResetWarning,0835.7,5.00,000.00,028.8,027.5,000.0,037.1,030.4,11.7,0000.0,0004.10,0009.29,0003.31
2023-09-25 05:36:00,SystemResetWarning,0835.7,5.00,000.00,028.8,027.5,000.0,037.2,030.4,11.7,0000.0,0004.09,0009.16,0003.31
2023-09-25 05:37:00,SystemResetWarning,0835.6,5.01,000.00,028.8,027.5,000.0,037.2,030.4,11.6,0000.0,0004.11,0009.19,0003.32
2023-09-25 05:38:00,SystemResetWarning,0835.7,5.01,000.00,028.8,027.5,000.0,037.2,030.4,11.6,0000.0,0004.09,0009.00,0003.33
2023-09-25 05:39:00,SystemResetWarning,0835.6,5.00,000.00,028.9,027.5,000.0,037.2,030.4,11.6,0000.0,0004.06,0008.95,0003.33
2023-09-25 05:40:00,SystemResetWarning,0835.6,5.00,000.00,028.9,027.5,000.0,037.2,030.4,11.5,0000.0,0004.04,0008.50,0003.33
2023-09-25 05:41:00,SystemResetWarning,0835.7,5.00,000.00,028.9,027.5,000.0,037.2,030.4,11.5,0000.0,0004.02,0008.06,0003.33
2023-09-25 05:42:00,SystemResetWarning,0835.6,5.00,000.00,028.9,027.5,000.0,037.2,030.4,11.5,0000.0,0004.02,0008.04,0003.34
2023-09-25 05:43:00,SystemResetWarning,0835.7,4.99,000.00,028.9,027.5,000.0,037.2,030.5,11.5,0000.0,0004.05,0008.21,0003.34
2023-09-25 05:44:00,SystemResetWarning,0835.7,5.00,000.00,028.9,027.5,000.0,037.2,030.5,11.5,0000.0,0004.08,0008.25,0003.34
2023-09-25 05:45:00,SystemResetWarning,0835.8,5.00,000.00,028.9,027.5,000.0,037.2,030.5,11.4,0000.0,0004.08,0008.40,0003.34
2023-09-25 05:46:00,SystemResetWarning,0835.7,5.00,000.00,028.9,027.5,000.0,037.2,030.5,11.4,0000.0,0004.04,0008.42,0003.33
2023-09-25 05:47:00,SystemResetWarning,0835.6,5.01,000.00,028.9,027.5,000.0,037.2,030.4,11.5,0000.0,0004.04,0008.49,0003.33
2023-09-25 05:48:00,SystemResetWarning,0835.6,5.01,000.00,028.9,027.5,000.0,037.3,030.4,11.4,0000.0,0004.03,0008.52,0003.33
2023-09-25 05:49:00,SystemResetWarning,0835.6,5.01,000.00,028.9,027.5,000.0,037.2,030.5,11.4,0000.0,0004.00,0008.60,0003.33
2023-09-25 05:50:00,SystemResetWarning,0835.7,5.00,000.00,028.9,027.5,000.0,037.2,030.5,11.4,0000.0,0003.96,0008.47,0003.33
2023-09-25 05:51:00,SystemResetWarning,0835.9,5.00,000.00,028.9,027.5,000.0,037.3,030.4,11.4,0000.0,0003.95,0008.50,0003.33
2023-09-25 05:52:00,SystemResetWarning,0835.7,5.00,000.00,028.9,027.5,000.0,037.3,030.5,11.4,0000.0,0004.01,0009.42,0003.34
2023-09-25 05:53:00,SystemResetWarning,0835.7,5.00,000.00,028.9,027.5,000.0,037.3,030.5,11.4,0000.0,0004.08,0009.93,0003.34
2023-09-25 05:54:00,SystemResetWarning,0835.8,5.00,000.00,028.9,027.5,000.0,037.3,030.5,11.4,0000.0,0004.10,0009.93,0003.34
2023-09-25 05:55:00,SystemResetWarning,0835.8,5.00,000.00,028.9,027.5,000.0,037.3,030.5,11.4,0000.0,0004.06,0009.78,0003.33
2023-09-25 05:56:00,SystemResetWarning,0835.8,4.99,000.00,028.9,027.5,000.0,037.3,030.5,11.4,0000.0,0004.05,0010.07,0003.33
2023-09-25 05:57:00,SystemResetWarning,0835.8,5.00,000.00,028.9,027.5,000.0,037.3,030.5,11.3,0000.0,0004.06,0009.96,0003.34
2023-09-25 05:58:00,SystemResetWarning,0835.8,5.00,000.00,028.9,027.5,000.0,037.3,030.5,11.4,0000.0,0004.04,0010.10,0003.33
2023-09-25 05:59:00,SystemResetWarning,0835.8,5.00,000.00,028.9,027.5,000.0,037.3,030.5,11.4,0000.0,0004.01,0009.91,0003.32
